Weather History for KFSI - July, 2014

Change the Weather History Date:

Tuesday, July 22, 2014

  Actual Average Record
Temperature  
Mean Temperature 86 °F -  
Max Temperature 98 °F 95 °F 110 °F (1974)
Min Temperature 74 °F 70 °F 59 °F (1970)
Cooling Degree Days 21    
Growing Degree Days 36 (Base 50)    
Moisture  
Dew Point 71 °F    
Average Humidity 64    
Maximum Humidity 91    
Minimum Humidity 36    
Precipitation  
Precipitation 0.00 in - - ()
Sea Level Pressure  
Sea Level Pressure 30.03 in    
Wind  
Wind Speed 7 mph (SSE)    
Max Wind Speed 13 mph    
Max Gust Speed 18 mph    
Visibility 10 miles    
Events      
Averages and records for this station are not official NWS values.
T = Trace of Precipitation, MM = Missing Value Source: NWS Daily Summary

Daily Weather History Graph

Daily Weather History Graph

Search for Another Location

Airport or City:

Trip Planner

Search our weather history database for the weather conditions in past years. The results will help you decide how hot, cold, wet, or windy it might be!

Date:

Astronomy

Jul. 22, 2014 Rise Set
Actual Time 6:36 AM CDT 8:43 PM CDT
Civil Twilight 6:08 AM CDT 9:11 PM CDT
Nautical Twilight 5:33 AM CDT 9:45 PM CDT
Astronomical Twilight 4:56 AM CDT 10:23 PM CDT
Moon 3:09 AM CDT (7/22) 5:23 PM CDT (7/22)
Length of Visible Light 15h 03m
Length of Day
14h 06m
Waning Crescent, 16% of the Moon is Illuminated
Jul 22
Waning Crescent
Jul 26
New
Aug 3
First Quarter
Aug 10
Full
Aug 17
Last Quarter

Hourly Weather History & Observations

Time (CDT) Temp. Heat Index Dew Point Humidity Pressure Visibility Wind Dir Wind Speed Gust Speed Precip Events Conditions
12:58 AM 79.7 °F - 70.9 °F 74% 30.01 in 10.0 mi SE 5.8 mph - N/A   Clear
1:58 AM 77.9 °F - 71.1 °F 79% 29.99 in 10.0 mi SSE 5.8 mph - N/A   Clear
2:58 AM 77.0 °F - 71.4 °F 83% 29.99 in 10.0 mi SSE 5.8 mph - N/A   Clear
3:58 AM 76.1 °F - 71.4 °F 85% 29.98 in 10.0 mi SSE 5.8 mph - N/A   Clear
4:58 AM 75.6 °F - 71.4 °F 87% 29.99 in 10.0 mi SSE 6.9 mph - N/A   Clear
5:58 AM 74.8 °F - 71.4 °F 89% 30.01 in 10.0 mi SSE 6.9 mph - N/A   Clear
6:58 AM 74.3 °F - 71.6 °F 91% 30.04 in 8.0 mi SSE 8.1 mph - N/A   Clear
7:58 AM 76.3 °F - 72.1 °F 87% 30.06 in 10.0 mi South 6.9 mph - N/A   Clear
8:58 AM 79.2 °F - 72.7 °F 80% 30.06 in 10.0 mi South 11.5 mph - N/A   Clear
9:58 AM 83.7 °F 90.4 °F 73.6 °F 72% 30.07 in 10.0 mi SSE 9.2 mph - N/A   Clear
10:58 AM 87.1 °F 94.9 °F 73.6 °F 64% 30.07 in 10.0 mi South 10.4 mph - N/A   Clear
12:58 PM 93.0 °F 101.3 °F 72.5 °F 51% 30.05 in 10.0 mi SW 8.1 mph - N/A   Clear
1:58 PM 93.9 °F 101.5 °F 71.4 °F 48% 30.04 in 10.0 mi WSW 5.8 mph - N/A   Partly Cloudy
2:58 PM 95.9 °F 103.2 °F 70.7 °F 44% 30.03 in 10.0 mi South 6.9 mph - N/A   Clear
3:58 PM 97.5 °F 103.9 °F 69.3 °F 40% 30.01 in 10.0 mi SE 6.9 mph - N/A   Clear
4:58 PM 98.1 °F 104.4 °F 68.9 °F 39% 29.99 in 10.0 mi SE 9.2 mph 18.4 mph N/A   Clear
5:58 PM 97.2 °F 100.7 °F 66.4 °F 36% 29.99 in 10.0 mi SE 12.7 mph - N/A   Clear
6:58 PM 96.1 °F 100.5 °F 67.3 °F 39% 30.00 in 10.0 mi ESE 6.9 mph - N/A   Clear
7:58 PM 92.7 °F 98.3 °F 69.8 °F 47% 30.01 in 10.0 mi SE 10.4 mph - N/A   Clear
8:58 PM 87.4 °F 90.8 °F 68.0 °F 52% 30.03 in 10.0 mi SSE 6.9 mph - N/A   Clear
9:58 PM 85.3 °F 89.8 °F 69.8 °F 60% 30.04 in 10.0 mi SSE 6.9 mph - N/A   Clear
10:58 PM 82.8 °F 86.9 °F 70.3 °F 66% 30.06 in 10.0 mi SSE 6.9 mph - N/A   Clear
11:58 PM 81.5 °F 85.5 °F 71.1 °F 70% 30.06 in 10.0 mi South 5.8 mph - N/A   Clear